NOZ271 ENCN-ENGM

Flight info

Callsign NOZ271
Flight time 0h 29m
Altitude 19000
Route VAVET DCT PIPEX M609 RIPAM
Aircraft B738/M-SDE2E3FGHIRWXY/LB1

Departure

Time 2026-05-04 10:56
Airport Kristiansand Airport (ENCN)

Arrival

Time 2026-05-04 11:25
Airport Oslo-Gardermoen International Airport (ENGM)
Time Latitude Longitude Altitude Speed Heading
2026-05-04 10:32 58.20215 8.07520 50 ft 0 kts 301°
2026-05-04 10:49 58.20214 8.07521 50 ft 1 kts 301°
2026-05-04 10:50 58.20202 8.07559 47 ft 4 kts 304°
2026-05-04 10:51 58.20193 8.07584 48 ft 0 kts 301°
2026-05-04 10:52 58.20193 8.07573 49 ft 4 kts 267°
2026-05-04 10:52 58.20163 8.07554 50 ft 11 kts 195°
2026-05-04 10:54 58.19705 8.07581 49 ft 6 kts 51°
2026-05-04 10:54 58.19720 8.07604 49 ft 0 kts 36°
2026-05-04 10:56 58.25275 8.14841 3250 ft 217 kts 27°
2026-05-04 10:56 58.26577 8.16601 3532 ft 241 kts 31°
2026-05-04 10:56 58.28003 8.18561 3952 ft 261 kts 31°
2026-05-04 10:57 58.29464 8.20534 4963 ft 260 kts 30°
2026-05-04 10:57 58.30967 8.22549 5775 ft 269 kts 30°
2026-05-04 10:57 58.32538 8.24594 6470 ft 280 kts 29°
2026-05-04 10:57 58.34154 8.26711 7355 ft 280 kts 31°
2026-05-04 10:58 58.35744 8.28898 8214 ft 286 kts 31°
2026-05-04 10:58 58.37396 8.31200 8708 ft 302 kts 32°
2026-05-04 10:58 58.39072 8.33617 9692 ft 301 kts 34°
2026-05-04 10:58 58.40713 8.36154 10414 ft 309 kts 35°
2026-05-04 10:59 58.41865 8.37959 10560 ft 327 kts 35°
2026-05-04 10:59 58.43664 8.40788 10793 ft 349 kts 36°
2026-05-04 10:59 58.45566 8.43783 11366 ft 360 kts 36°
2026-05-04 10:59 58.47515 8.46844 12107 ft 364 kts 35°
2026-05-04 11:00 58.49491 8.49940 12812 ft 370 kts 34°
2026-05-04 11:01 58.64015 8.72761 17461 ft 401 kts 34°
2026-05-04 11:02 58.66192 8.76157 18095 ft 405 kts 33°
2026-05-04 11:02 58.68414 8.79520 18656 ft 408 kts 32°
2026-05-04 11:05 59.00479 9.28453 21930 ft 398 kts 32°
2026-05-04 11:06 59.02634 9.31785 21527 ft 395 kts 32°
2026-05-04 11:06 59.04770 9.35092 21173 ft 390 kts 32°
2026-05-04 11:06 59.06879 9.38376 20796 ft 387 kts 32°
2026-05-04 11:06 59.08974 9.41645 20436 ft 384 kts 32°
2026-05-04 11:08 59.23521 9.63190 17929 ft 366 kts 25°
2026-05-04 11:10 59.37909 9.82884 15355 ft 356 kts 34°
2026-05-04 11:12 59.51046 10.04185 13049 ft 340 kts 34°
2026-05-04 11:12 59.52856 10.07099 12789 ft 334 kts 34°
2026-05-04 11:12 59.54645 10.09997 12466 ft 332 kts 34°
2026-05-04 11:12 59.56427 10.12884 12129 ft 331 kts 34°
2026-05-04 11:13 59.58200 10.15754 11791 ft 329 kts 34°
2026-05-04 11:13 59.59966 10.18616 11462 ft 327 kts 34°
2026-05-04 11:13 59.61716 10.21460 11134 ft 325 kts 34°
2026-05-04 11:13 59.63460 10.24298 10812 ft 323 kts 35°
2026-05-04 11:14 59.65195 10.27124 10494 ft 322 kts 35°
2026-05-04 11:14 59.66903 10.29918 10339 ft 315 kts 35°
2026-05-04 11:14 59.68569 10.32642 10188 ft 307 kts 35°
2026-05-04 11:16 59.79546 10.50660 8438 ft 286 kts 34°
2026-05-04 11:16 59.81071 10.53176 8158 ft 283 kts 34°
2026-05-04 11:16 59.82583 10.55671 7893 ft 281 kts 34°
2026-05-04 11:17 59.84076 10.58139 7615 ft 279 kts 35°
2026-05-04 11:17 59.85566 10.60603 7334 ft 277 kts 34°
2026-05-04 11:19 59.95667 10.77411 5761 ft 254 kts 34°
2026-05-04 11:19 59.96929 10.79773 5643 ft 254 kts 50°
2026-05-04 11:19 59.97540 10.83101 5435 ft 260 kts 82°
2026-05-04 11:19 59.97708 10.86673 5193 ft 259 kts 82°
2026-05-04 11:20 59.97885 10.90244 4948 ft 258 kts 82°
2026-05-04 11:20 59.98065 10.93806 4708 ft 256 kts 82°
2026-05-04 11:20 59.98319 10.97257 4575 ft 243 kts 69°
2026-05-04 11:20 59.99215 10.99885 4413 ft 222 kts 27°
2026-05-04 11:22 60.08434 11.05490 2654 ft 185 kts 11°
2026-05-04 11:22 60.09673 11.06189 2343 ft 185 kts
2026-05-04 11:23 60.10903 11.06916 2100 ft 181 kts 10°
2026-05-04 11:23 60.12103 11.07621 1843 ft 177 kts 11°
2026-05-04 11:24 60.18404 11.11250 681 ft 131 kts 14°
2026-05-04 11:25 60.19065 11.11637 683 ft 63 kts 16°
2026-05-04 11:25 60.19324 11.11668 682 ft 25 kts 335°
2026-05-04 11:25 60.19398 11.11385 681 ft 22 kts 285°
2026-05-04 11:26 60.19473 11.10857 682 ft 17 kts 286°
2026-05-04 11:27 60.19563 11.10159 684 ft 0 kts 286°